Madison, MN

7:58 AM CST on December 15, 2019 (GMT -0600)
Madison-Lac Qui Parle County

Weather History for KDXX - October, 2019

Change the Weather History Date:

Wednesday, October 9, 2019

  Actual Average (KAQP) Record (KAQP)
Temperature  
Mean Temperature 64 °F -  
Max Temperature 75 °F 59 °F 84 °F (1999)
Min Temperature 53 °F 36 °F 21 °F (2002)
Degree Days  
Heating Degree Days 1    
Growing Degree Days 14 (Base 50)    
Moisture  
Dew Point 50 °F    
Average Humidity 63    
Maximum Humidity 82    
Minimum Humidity 41    
Precipitation  
Precipitation 0.00 in - - ()
Sea Level Pressure  
Sea Level Pressure 29.76 in    
Wind  
Wind Speed 9 mph (South)    
Max Wind Speed 18 mph    
Max Gust Speed 26 mph    
Visibility 10 miles    
Events      
Averages and records for this station are not official NWS values.
T = Trace of Precipitation, MM = Missing Value Source: NWS Daily Summary

Daily Weather History Graph

Daily Weather History Graph

Search for Another Location

Airport or City:

Astronomy

Oct. 09, 2019 Rise Set
Actual Time 7:32 AM CDT 6:50 PM CDT
Civil Twilight 7:03 AM CDT 7:20 PM CDT
Nautical Twilight 6:29 AM CDT 7:54 PM CDT
Astronomical Twilight 5:54 AM CDT 8:28 PM CDT
Moon 5:36 PM CDT (10/9) 3:05 AM CDT (10/9)
Length of Visible Light 12h 17m
Length of Day
11h 18m
Waxing Gibbous, 85% of the Moon is Illuminated
Oct 9
Waxing Gibbous
Oct 13
Full
Oct 21
Last Quarter
Oct 27
New
Nov 4
First Quarter

Hourly Weather History & Observations

Time (CDT) Temp. Dew Point Humidity Pressure Visibility Wind Dir Wind Speed Gust Speed Precip Events Conditions
12:15 AM 57.2 °F 46.4 °F 67% 29.76 in 10.0 mi SSE 8.1 mph - N/A   Clear
12:19 AM 57.2 °F 46.4 °F 67% 29.76 in 10.0 mi SSE 8.1 mph - N/A   Clear
12:38 AM 57.2 °F 46.4 °F 67% 29.75 in 10.0 mi SSE 9.2 mph - N/A   Clear
12:55 AM 57.2 °F 46.4 °F 67% 29.75 in 10.0 mi SSE 10.4 mph - N/A   Clear
1:15 AM 57.2 °F 46.4 °F 67% 29.75 in 10.0 mi SSE 6.9 mph - N/A   Clear
1:35 AM 55.4 °F 46.4 °F 72% 29.75 in 10.0 mi SE 6.9 mph - N/A   Clear
1:36 AM 55.4 °F 46.4 °F 72% 29.75 in 10.0 mi SE 6.9 mph - N/A   Clear
1:58 AM 55.4 °F 46.4 °F 72% 29.75 in 10.0 mi SE 6.9 mph - N/A   Clear
2:16 AM 57.2 °F 46.4 °F 67% 29.75 in 10.0 mi SSE 9.2 mph - N/A   Clear
2:35 AM 57.2 °F 46.4 °F 67% 29.74 in 10.0 mi SSE 9.2 mph - N/A   Clear
2:55 AM 55.4 °F 46.4 °F 72% 29.74 in 10.0 mi SSE 9.2 mph - N/A   Clear
2:56 AM 57.2 °F 46.4 °F 67% 29.74 in 10.0 mi SSE 9.2 mph - N/A   Clear
3:15 AM 57.2 °F 46.4 °F 67% 29.74 in 10.0 mi SSE 8.1 mph - N/A   Clear
3:20 AM 55.4 °F 46.4 °F 72% 29.74 in 10.0 mi SSE 8.1 mph - N/A   Clear
3:37 AM 55.4 °F 48.2 °F 77% 29.73 in 10.0 mi SSE 9.2 mph - N/A   Clear
3:55 AM 57.2 °F 48.2 °F 72% 29.72 in 10.0 mi SSE 10.4 mph - N/A   Clear
4:35 AM 57.2 °F 48.2 °F 72% 29.72 in 10.0 mi SSE 8.1 mph - N/A   Clear
4:36 AM 57.2 °F 48.2 °F 72% 29.72 in 10.0 mi SSE 6.9 mph - N/A   Clear
4:58 AM 57.2 °F 48.2 °F 72% 29.73 in 10.0 mi SSE 9.2 mph - N/A   Clear
5:17 AM 55.4 °F 48.2 °F 77% 29.73 in 10.0 mi SSE 6.9 mph - N/A   Clear
5:36 AM 53.6 °F 48.2 °F 82% 29.72 in 10.0 mi SE 6.9 mph - N/A   Clear
5:55 AM 53.6 °F 48.2 °F 82% 29.72 in 10.0 mi SE 6.9 mph - N/A   Clear
5:56 AM 53.6 °F 48.2 °F 82% 29.72 in 10.0 mi SE 6.9 mph - N/A   Clear
6:15 AM 53.6 °F 48.2 °F 82% 29.73 in 10.0 mi SE 5.8 mph - N/A   Clear
6:37 AM 53.6 °F 48.2 °F 82% 29.73 in 10.0 mi SE 8.1 mph - N/A   Clear
6:56 AM 53.6 °F 48.2 °F 82% 29.72 in 10.0 mi SSE 9.2 mph - N/A   Clear
7:15 AM 53.6 °F 48.2 °F 82% 29.72 in 10.0 mi SSE 8.1 mph - N/A   Clear
7:16 AM 53.6 °F 48.2 °F 82% 29.72 in 10.0 mi SSE 8.1 mph - N/A   Clear
7:35 AM 55.4 °F 48.2 °F 77% 29.72 in 10.0 mi SSE 8.1 mph - N/A   Clear
7:36 AM 55.4 °F 48.2 °F 77% 29.72 in 10.0 mi SSE 8.1 mph - N/A   Clear
7:59 AM 57.2 °F 50.0 °F 77% 29.72 in 10.0 mi SSE 9.2 mph - N/A   Clear
8:16 AM 57.2 °F 50.0 °F 77% 29.72 in 10.0 mi SSE 11.5 mph 16.1 mph N/A   Clear
8:35 AM 59.0 °F 50.0 °F 72% 29.72 in 10.0 mi SSE 10.4 mph 18.4 mph N/A   Clear
8:36 AM 59.0 °F 50.0 °F 72% 29.72 in 10.0 mi SSE 11.5 mph 18.4 mph N/A   Clear
8:55 AM 60.8 °F 50.0 °F 68% 29.72 in 10.0 mi SSE 11.5 mph - N/A   Clear
8:56 AM 60.8 °F 50.0 °F 68% 29.72 in 10.0 mi SSE 11.5 mph - N/A   Clear
9:18 AM 62.6 °F 51.8 °F 68% 29.74 in 10.0 mi South 9.2 mph - N/A   Clear
9:37 AM 64.4 °F 50.0 °F 59% 29.73 in 10.0 mi SSE 13.8 mph 20.7 mph N/A   Clear
9:56 AM 64.4 °F 50.0 °F 59% 29.73 in 10.0 mi South 15.0 mph 23.0 mph N/A   Clear
10:15 AM 66.2 °F 50.0 °F 56% 29.73 in 10.0 mi South 17.3 mph 24.2 mph N/A   Clear
10:35 AM 66.2 °F 50.0 °F 56% 29.74 in 10.0 mi South 15.0 mph 25.3 mph N/A   Clear
10:57 AM 69.8 °F 50.0 °F 49% 29.74 in 10.0 mi South 15.0 mph 26.5 mph N/A   Clear
11:16 AM 69.8 °F 50.0 °F 49% 29.74 in 10.0 mi South 17.3 mph 24.2 mph N/A   Clear
11:36 AM 69.8 °F 50.0 °F 49% 29.74 in 10.0 mi South 13.8 mph 26.5 mph N/A   Clear
11:55 AM 71.6 °F 50.0 °F 46% 29.73 in 10.0 mi South 18.4 mph 25.3 mph N/A   Clear
11:56 AM 71.6 °F 50.0 °F 46% 29.74 in 10.0 mi South 18.4 mph 25.3 mph N/A   Clear
12:19 PM 71.6 °F 50.0 °F 46% 29.74 in 10.0 mi South 17.3 mph 24.2 mph N/A   Clear
12:35 PM 73.4 °F 50.0 °F 44% 29.73 in 10.0 mi South 13.8 mph 24.2 mph N/A   Clear
12:55 PM 73.4 °F 50.0 °F 44% 29.73 in 10.0 mi South 11.5 mph 20.7 mph N/A   Clear
1:15 PM 73.4 °F 50.0 °F 44% 29.72 in 10.0 mi South 16.1 mph 21.9 mph N/A   Clear
1:16 PM 73.4 °F 50.0 °F 44% 29.72 in 10.0 mi South 17.3 mph 21.9 mph N/A   Clear
1:38 PM 75.2 °F 50.0 °F 41% 29.72 in 10.0 mi South 17.3 mph 25.3 mph N/A   Clear
1:57 PM 75.2 °F 50.0 °F 41% 29.72 in 10.0 mi South 16.1 mph 21.9 mph N/A   Clear
2:16 PM 75.2 °F 50.0 °F 41% 29.72 in 10.0 mi South 13.8 mph 21.9 mph N/A   Clear
2:35 PM 75.2 °F 50.0 °F 41% 29.72 in 10.0 mi South 16.1 mph 23.0 mph N/A   Clear
2:36 PM 75.2 °F 50.0 °F 41% 29.72 in 10.0 mi South 16.1 mph 23.0 mph N/A   Clear
2:55 PM 73.4 °F 51.8 °F 47% 29.72 in 10.0 mi South 12.7 mph 23.0 mph N/A   Clear
3:16 PM 75.2 °F 51.8 °F 44% 29.72 in 10.0 mi SSW 16.1 mph 21.9 mph N/A   Clear
3:36 PM 75.2 °F 50.0 °F 41% 29.72 in 10.0 mi SSW 13.8 mph 21.9 mph N/A   Clear
3:56 PM 75.2 °F 51.8 °F 44% 29.73 in 10.0 mi SSW 8.1 mph - N/A   Clear
4:15 PM 75.2 °F 51.8 °F 44% 29.73 in 10.0 mi South 17.3 mph 21.9 mph N/A   Scattered Clouds
4:20 PM 75.2 °F 51.8 °F 44% 29.73 in 10.0 mi South 17.3 mph 23.0 mph N/A   Scattered Clouds
4:37 PM 75.2 °F 51.8 °F 44% 29.73 in 10.0 mi SSW 11.5 mph 18.4 mph N/A   Scattered Clouds
4:55 PM 75.2 °F 51.8 °F 44% 29.73 in 10.0 mi SW 8.1 mph - N/A   Clear
5:15 PM 75.2 °F 53.6 °F 47% 29.73 in 10.0 mi South 16.1 mph 20.7 mph N/A   Mostly Cloudy
5:35 PM 75.2 °F 53.6 °F 47% 29.74 in 10.0 mi South 12.7 mph - N/A   Mostly Cloudy
5:36 PM 75.2 °F 53.6 °F 47% 29.75 in 10.0 mi South 12.7 mph 17.3 mph N/A   Mostly Cloudy
5:58 PM 73.4 °F 53.6 °F 50% 29.75 in 10.0 mi South 13.8 mph 18.4 mph N/A   Mostly Cloudy
6:17 PM 73.4 °F 53.6 °F 50% 29.76 in 10.0 mi South 12.7 mph 19.6 mph N/A   Mostly Cloudy
6:36 PM 71.6 °F 53.6 °F 53% 29.77 in 10.0 mi South 6.9 mph - N/A   Mostly Cloudy
6:55 PM 71.6 °F 53.6 °F 53% 29.77 in 10.0 mi South 9.2 mph - N/A   Mostly Cloudy
6:56 PM 71.6 °F 53.6 °F 53% 29.77 in 10.0 mi South 9.2 mph - N/A   Mostly Cloudy
7:15 PM 71.6 °F 53.6 °F 53% 29.78 in 10.0 mi SSE 9.2 mph - N/A   Overcast
7:37 PM 69.8 °F 53.6 °F 56% 29.79 in 10.0 mi SSE 6.9 mph - N/A   Overcast
7:56 PM 68.0 °F 53.6 °F 60% 29.80 in 10.0 mi South 3.5 mph - N/A   Mostly Cloudy
8:15 PM 64.4 °F 55.4 °F 73% 29.81 in 10.0 mi NW 4.6 mph - N/A   Mostly Cloudy
8:16 PM 64.4 °F 55.4 °F 73% 29.81 in 10.0 mi NW 4.6 mph - N/A   Mostly Cloudy
8:35 PM 64.4 °F 53.6 °F 68% 29.82 in 10.0 mi West 4.6 mph - N/A   Overcast
8:36 PM 64.4 °F 53.6 °F 68% 29.82 in 10.0 mi West 5.8 mph - N/A   Overcast
8:59 PM 62.6 °F 53.6 °F 72% 29.83 in 10.0 mi NW 4.6 mph - N/A   Overcast
9:16 PM 62.6 °F 53.6 °F 72% 29.83 in 10.0 mi WNW 6.9 mph - N/A   Overcast
9:35 PM 60.8 °F 53.6 °F 77% 29.85 in 10.0 mi West 3.5 mph - N/A   Overcast
9:36 PM 60.8 °F 53.6 °F 77% 29.85 in 10.0 mi West 3.5 mph - N/A   Overcast
9:56 PM 60.8 °F 53.6 °F 77% 29.85 in 10.0 mi WNW 3.5 mph - N/A   Overcast
10:18 PM 60.8 °F 53.6 °F 77% 29.86 in 10.0 mi Calm Calm - N/A   Overcast
10:37 PM 60.8 °F 53.6 °F 77% 29.87 in 10.0 mi Calm Calm - N/A   Overcast
10:56 PM 60.8 °F 53.6 °F 77% 29.87 in 10.0 mi Calm Calm - N/A   Overcast
11:15 PM 60.8 °F 53.6 °F 77% 29.87 in 10.0 mi Calm Calm - N/A   Overcast
11:16 PM 60.8 °F 53.6 °F 77% 29.87 in 10.0 mi Calm Calm - N/A   Overcast
11:35 PM 60.8 °F 53.6 °F 77% 29.87 in 10.0 mi SSE 4.6 mph - N/A   Overcast
11:57 PM 62.6 °F 51.8 °F 68% 29.87 in 10.0 mi Calm Calm - N/A   Overcast